User: anonymous   Login
Location: Mentone
(34.5413°N, 85.5351°W)
Time: 17:26:05
(UTC-06:00)
Language:

A-11 Canister half - Orbit

View from above orbital plane
View from above orbital plane
View from above satellite
View from above satellite

Ground track
Ground track

The orbit data is extracted from the following two-line orbital elements,

1 00053U 60009E   14352.36965650 -.00000084  00000-0  00000+0 0  6144
2 00053 047.2779 331.1432 0100077 268.2595 242.4428 12.17158738423980
Epoch (UTC): 18 December 2014 08:52:18
Eccentricity: 0.0100077
inclination: 47.2779°
perigee height: 1525 km
apogee height: 1685 km
right ascension of ascending node: 331.1432°
argument of perigee: 268.2595°
revolutions per day: 12.17158738
mean anomaly at epoch: 242.4428°
orbit number at epoch: 42398

The dashed part of the orbit path shows where the satellite is in the earth's shadow,  

DLR